User: anonymous   Login
Location: Haliburton Scout Reserve
(45.0900°N, 78.3200°W)
Time: 07:23:14
(UTC-04:00)
Language:

MOZHAYETS 4 - Orbit

View from above orbital plane
View from above orbital plane
View from above satellite
View from above satellite

Ground track
Ground track

The orbit data is extracted from the following two-line orbital elements,

1 27939U 03042A   22142.07599990  .00001346  00000-0  24704-3 0  9992
2 27939  98.1885 282.8093 0011592 292.6541  67.3416 14.67321469997173
Epoch (UTC): 22 May 2022 01:49:26
Eccentricity: 0.0011592
inclination: 98.1885°
perigee height: 661 km
apogee height: 678 km
right ascension of ascending node: 282.8093°
argument of perigee: 292.6541°
revolutions per day: 14.67321469
mean anomaly at epoch: 67.3416°
orbit number at epoch: 99717

The dashed part of the orbit path shows where the satellite is in the earth's shadow,  

DLR